Voltar ao catálogo

FENGYUN 1C DEB

AtivoSSO
NORAD 36232·DEBRIS·🇨🇳 China

Lançado May 10, 1999 de Taiyuan Satellite Launch Center

Loading…

Próximas Passagens (próximas 24 horas)

TLE

AtualizadoSource: Space-Track

Época: Sep 12, 2026, 04:01 UTC

1 36232U 99025DVH 26255.16772119  .00000322  00000-0  18468-3 0  9992
2 36232  98.7322 237.0395 0117712 330.1218  29.3269 14.12781739655960

Acompanhe FENGYUN 1C DEB em tempo real com AllMySat

Download on the App Store